Terminal Aerodrome Forecast
Issued by NWS Portland, OR

Home | Current Version | Previous Version | Text Only | Print | Product List | Glossary On
Versions: 1 2 3 4 5 6 7 8 9 10 11 12 13 14 15 16 17 18 19 20 21 22 23 24 25 26 27 28 29 30 31 32 33 34 35 36 37 38 39 40 41 42 43 44 45 46 47
000
FTUS46 KPQR 281120
TAFAST
TAF
KAST 281120Z 2812/2912 00000KT P6SM BKN008 OVC015
     FM281800 30007KT P6SM BKN011
     FM282200 30010KT P6SM OVC020
     FM290600 26004KT P6SM OVC007=

USA.gov is the U.S. government's official web portal to all federal, state and local government web resources and services.